This demonstration page uses our WeatherBlox Daily Observations layout. Learn more.

Left ArrowRight Arrow

34.02893, -84.19858

Hourly Observations for May 27, 2022

Temp ( °F °C ) Dew Point ( °F °C ) Humidity (%) Winds ( mph kmh ) Pressure ( in mb ) Visibility ( mi km ) Precip ( " mm )
12:12 am 00:12 Cloudy 68 20 65 18.3 90 90 S 8 13 29.92 1013 9 14 0.00 0.00
12:25 am 00:25 Cloudy 68 20 65 18.3 90 90 S 8 13 29.92 1013 10 16 0.00 0.00
12:32 am 00:32 Cloudy 68 20 65 18.3 90 90 S 9 15 29.92 1013 10 16 0.00 0.00
12:53 am 00:53 Cloudy 68 20 65 18.3 90 90 S 8 13 29.92 1013 8 13 0.00 0.00
1:17 am 01:17 Cloudy 67 19.4 66 18.9 97 97 SSW 9 15 29.94 1014 10 16 0.01 0.25
1:24 am 01:24 Cloudy 67 19.4 66 18.9 97 97 SSW 7 11 29.93 1013 10 16 0.01 0.25
1:53 am 01:53 Cloudy 67 19.4 65 18.3 93 93 SSW 9 15 29.91 1013 10 16 0.01 0.25
2:04 am 02:04 Cloudy 67 19.4 65 18.3 93 93 S 7 11 29.93 1013 10 16 0.00 0.00
2:53 am 02:53 Cloudy 67 19.4 65 18.3 93 93 SSW 8 13 29.90 1013 10 16 0.00 0.00
3:04 am 03:04 Mostly Cloudy 67 19.4 65 18.3 93 93 SSW 8 13 29.91 1013 10 16 0.00 0.00
3:24 am 03:24 Partly Cloudy 66 18.9 65 18.3 96 96 S 6 9 29.91 1013 10 16 0.00 0.00
3:35 am 03:35 Mostly Cloudy 66 18.9 65 18.3 96 96 SW 5 7 29.91 1013 10 16 0.00 0.00
3:53 am 03:53 Mostly Cloudy 66 18.9 64 17.8 93 93 SW 6 9 29.89 1012 10 16 0.00 0.00
4:12 am 04:12 Mostly Cloudy 66 18.9 64 17.8 93 93 SW 7 11 29.90 1012 10 16 0.00 0.00
4:53 am 04:53 Mostly Cloudy 66 18.9 63 17.2 90 90 SSW 7 11 29.89 1012 10 16 0.00 0.00
5:06 am 05:06 Partly Cloudy 65 18.3 63 17.2 93 93 SSW 9 15 29.90 1013 10 16 0.00 0.00
5:36 am 05:36 Mostly Cloudy 65 18.3 63 17.2 93 93 SW 7 11 29.90 1013 10 16 0.00 0.00
5:53 am 05:53 Mostly Cloudy 65 18.3 63 17.2 93 93 SSW 9 15 29.89 1012 10 16 0.00 0.00
6:53 am 06:53 Mostly Cloudy 64 17.8 62 16.7 93 93 SSW 8 13 29.91 1013 10 16 0.00 0.00
7:17 am 07:17 Partly Cloudy 65 18.3 62 16.7 90 90 SSW 9 15 29.92 1013 10 16 0.00 0.00
7:53 am 07:53 Mostly Cloudy 66 18.9 63 17.2 90 90 SW 10 17 29.91 1013 10 16 0.00 0.00
8:53 am 08:53 Cloudy 67 19.4 63 17.2 87 87 SW 9 15 29.91 1013 10 16 0.00 0.00
9:38 am 09:38 Mostly Cloudy 69 20.6 63 17.2 81 81 SSW 13 20 29.92 1013 10 16 0.00 0.00
9:53 am 09:53 Mostly Cloudy 71 21.7 64 17.8 79 79 SSW 13 20 29.91 1013 10 16 0.00 0.00
10:01 am 10:01 Partly Cloudy 71 21.7 63 17.2 76 76 SSW 13 20 29.91 1013 10 16 0.00 0.00
10:53 am 10:53 Mostly Cloudy 74 23.3 63 17.2 69 69 SW 13 20 29.89 1012 10 16 0.00 0.00
11:19 am 11:19 Mostly Cloudy 74 23.3 63 17.2 69 69 SW 13 20 29.89 1012 10 16 0.00 0.00
11:29 am 11:29 Mostly Cloudy 74 23.3 63 17.2 69 69 SW 10 17 29.89 1012 10 16 0.00 0.00
11:53 am 11:53 Partly Cloudy 76 24.4 63 17.2 64 64 SW 15 24 29.88 1012 10 16 0.00 0.00
12:53 pm 12:53 Mostly Sunny 79 26.1 62 16.7 56 56 SW 20 31 29.87 1012 10 16 0.00 0.00
1:53 pm 13:53 Mostly Cloudy 77 25 59 15 54 54 WSW 13 20 29.85 1011 10 16 0.00 0.00
2:53 pm 14:53 Mostly Cloudy 79 26.1 57 13.9 47 47 WSW 16 26 29.83 1010 10 16 0.00 0.00
3:53 pm 15:53 Mostly Cloudy 78 25.6 57 13.9 48 48 W 12 19 29.83 1010 10 16 0.00 0.00
4:53 pm 16:53 Mostly Sunny 81 27.2 56 13.3 42 42 WSW 16 26 29.82 1010 10 16 0.00 0.00
5:53 pm 17:53 Sunny 78 25.6 55 12.8 45 45 WSW 14 22 29.82 1010 10 16 0.00 0.00
6:53 pm 18:53 Mostly Sunny 77 25 56 13.3 48 48 W 10 17 29.83 1010 10 16 0.00 0.00
7:53 pm 19:53 Mostly Sunny 74 23.3 57 13.9 56 56 WNW 7 11 29.85 1011 10 16 0.00 0.00
8:53 pm 20:53 Clear 73 22.8 56 13.3 55 55 NW 9 15 29.87 1011 10 16 0.00 0.00
9:53 pm 21:53 Mostly Cloudy 71 21.7 56 13.3 59 59 NW 8 13 29.88 1012 10 16 0.00 0.00
10:53 pm 22:53 Clear 68 20 56 13.3 65 65 NW 7 11 29.90 1012 10 16 0.00 0.00
11:53 pm 23:53 Clear 66 18.9 56 13.3 70 70 NNW 6 9 29.89 1012 10 16 0.00 0.00

Powered by AerisWeather